Weather History for Alliance, NE

Change the Weather History Date:

Tuesday, February 21, 2012

  Actual Average Record
Temperature  
Mean Temperature 28 °F 28 °F  
Max Temperature 45 °F 43 °F 70 °F (1982)
Min Temperature 10 °F 14 °F -9 °F (2006)
Degree Days  
Heating Degree Days 37 37  
Month to date heating degree days 831 814  
Since 1 July heating degree days 4900 5159  
Cooling Degree Days 0 0  
Month to date cooling degree days 0 0  
Year to date cooling degree days 0 0  
Moisture  
Dew Point 21 °F    
Average Humidity 60    
Maximum Humidity 80    
Minimum Humidity 40    
Precipitation  
Precipitation 0.00 in 0.02 in 0.35 in (1957)
Month to date precipitation 0.20 0.29  
Year to date precipitation 0.41 0.47  
Sea Level Pressure  
Sea Level Pressure 29.80 in    
Wind  
Wind Speed 11 mph (West)    
Max Wind Speed 23 mph    
Max Gust Speed 28 mph    
Visibility 10 miles    
Events      
T = Trace of Precipitation, MM = Missing Value Source: NWS Daily Summary

Daily Weather History Graph

Daily Weather History Graph

Search for Another Location

Airport:

Trip Planner

Search our weather history database for the weather conditions in past years. The results will help you decide how hot, cold, wet, or windy it might be!

Date:

Astronomy

Feb. 21, 2012 Rise Set
Actual Time 6:39 AM MST 5:31 PM MST
Civil Twilight 6:10 AM MST 5:59 PM MST
Nautical Twilight 5:38 AM MST 6:31 PM MST
Astronomical Twilight 5:06 AM MST 7:04 PM MST
Moon 6:08 AM MST (2/21) 5:40 PM MST (2/21)
Length of Visible Light 11h 48m
Length of Day
10h 51m
Waning Crescent, 0% of the Moon is Illuminated
Feb 21
Waning Crescent
Feb 21
New
Feb 29
First Quarter
Mar 8
Full
Mar 14
Last Quarter

Hourly Weather History & Observations

Time (MST) Temp. Windchill Dew Point Humidity Pressure Visibility Wind Dir Wind Speed Gust Speed Precip Events Conditions
12:53 AM 24.1 °F 13.7 °F 17.1 °F 75% 29.89 in 10.0 mi West 10.4 mph - N/A   Overcast
1:53 AM 28.0 °F 16.1 °F 19.0 °F 69% 29.87 in 10.0 mi WNW 16.1 mph - N/A   Overcast
2:53 AM 28.0 °F 16.5 °F 18.0 °F 66% 29.87 in 10.0 mi WNW 15.0 mph - N/A   Mostly Cloudy
3:53 AM 24.8 °F 14.0 °F 17.6 °F 74% 29.81 in 10.0 mi WNW 11.5 mph - N/A   Clear
4:53 AM 19.0 °F 9.0 °F 14.0 °F 81% 29.91 in 10.0 mi West 8.1 mph - N/A   Clear
5:53 AM 18.0 °F 6.9 °F 12.9 °F 81% 29.91 in 10.0 mi West 9.2 mph - N/A   Clear
6:53 AM 15.1 °F 5.2 °F 10.9 °F 84% 29.93 in 10.0 mi West 6.9 mph - N/A   Clear
7:53 AM 12.0 °F 1.5 °F 7.0 °F 80% 29.95 in 10.0 mi West 6.9 mph - N/A   Clear
8:53 AM 19.0 °F 10.0 °F 12.0 °F 74% 29.94 in 10.0 mi WSW 6.9 mph - N/A   Clear
9:53 AM 24.1 °F 19.7 °F 17.1 °F 75% 29.91 in 10.0 mi West 3.5 mph - N/A   Clear
10:53 AM 36.0 °F 28.5 °F 23.0 °F 59% 29.85 in 10.0 mi West 10.4 mph - N/A   Clear
11:53 AM 39.0 °F 31.0 °F 25.0 °F 57% 29.80 in 10.0 mi West 13.8 mph - N/A   Clear
12:53 PM 41.0 °F 31.9 °F 25.0 °F 53% 29.74 in 10.0 mi West 19.6 mph - N/A   Clear
1:53 PM 44.1 °F 35.7 °F 21.0 °F 40% 29.70 in 10.0 mi WNW 20.7 mph - N/A   Mostly Cloudy
2:53 PM 44.6 °F 39.7 °F 23.0 °F 43% 29.66 in 10.0 mi NNW 9.2 mph - N/A   Partly Cloudy
3:53 PM 44.1 °F 39.5 °F 24.1 °F 45% 29.69 in 10.0 mi WNW 8.1 mph - N/A   Clear
4:53 PM 42.1 °F 37.7 °F 25.0 °F 51% 29.70 in 10.0 mi WNW 6.9 mph - N/A   Mostly Cloudy
5:53 PM 39.0 °F 32.3 °F 27.0 °F 62% 29.71 in 10.0 mi WSW 10.4 mph - N/A   Overcast
6:53 PM 37.9 °F 29.6 °F 28.0 °F 68% 29.73 in 10.0 mi West 13.8 mph - N/A   Partly Cloudy
7:53 PM 36.0 °F 27.5 °F 27.0 °F 70% 29.73 in 10.0 mi West 12.7 mph - N/A   Clear
8:53 PM 37.0 °F 29.3 °F 28.0 °F 70% 29.73 in 10.0 mi West 11.5 mph - N/A   Clear
9:53 PM 37.0 °F 28.9 °F 28.0 °F 70% 29.71 in 10.0 mi WNW 12.7 mph - N/A   Mostly Cloudy
10:53 PM 36.0 °F 29.0 °F 28.0 °F 73% 29.69 in 10.0 mi WNW 9.2 mph - N/A   Overcast
11:53 PM 35.1 °F 26.9 °F 27.0 °F 72% 29.66 in 10.0 mi West 11.5 mph - N/A   Mostly Cloudy